SCP
2 2 2 2 2 2 3 3 3 4 5 4 3 2 2 2 1 1 1 1 2 3 3 2 2 2 2 2 2 1 1 1 1 1 1 1 1 1 1 1 1 0 0
2 2 2 2 2 2 2 3 4 4 4 4 3 3 2 2 2 2 2 2 3 4 3 2 2 2 2 2 2 1 1 1 1 1 1 1 1 1 1 1 1 1 1
3 3 2 2 2 2 3 3 4 4 3 3 3 3 3 3 3 3 3 3 3 4 3 2 2 2 2 2 2 2 2 1 1 1 1 1 1 1 1 1 1 1 1
3 3 3 3 3 3 3 3 3 3 3 3 3 3 3 3 3 3 3 3 3 3 3 3 3 3 3 2 2 2 2 2 2 2 2 2 2 2 2 2 1 1 1
4 4 4 3 3 3 4 4 4 3 3 3 4 4 4 3 3 3 3 3 3 3 3 3 4 4 3 2 2 2 3 3 2 2 2 2 2 2 2 2 2 2 2
6 6 5 4 4 4 4 5 5 4 3 4 4 5 5 4 3 2 2 2 2 2 3 3 4 4 3 2 2 2 2 2 2 2 2 2 2 2 2 2 2 2 2
7 6 4 3 4 4 5 6 6 5 4 4 5 5 5 4 3 2 1 2 2 2 2 3 3 3 3 2 2 1 2 2 2 2 2 2 2 2 2 2 2 2 2
6 5 4 4 4 5 6 7 7 6 5 5 5 5 5 4 2 1 1 1 1 1 2 2 2 2 2 3 3 2 2 2 2 2 2 2 2 2 2 2 2 2 2
5 5 5 5 5 6 7 8 8 7 6 6 5 5 5 3 1 1 0 1 1 1 1 2 2 2 2 2 3 4 3 2 2 1 2 1 1 1 1 2 2 2 2
5 6 7 7 7 7 9 10 8 6 4 5 5 5 3 2 1 0 0 1 1 1 1 2 2 2 2 2 3 4 4 3 3 2 1 1 1 1 1 1 2 2 2
7 7 8 9 10 11 11 10 8 5 4 4 4 4 3 2 1 0 0 1 1 1 1 2 2 2 1 1 2 4 4 3 3 3 2 1 1 1 1 2 2 2 2
9 9 10 11 13 14 13 10 7 5 5 5 4 3 3 2 1 0 0 0 1 1 1 2 2 2 1 0 1 2 2 2 3 3 2 2 2 2 2 2 2 2 2
11 10 11 13 15 15 13 9 7 6 5 5 4 3 3 2 1 1 0 0 0 1 1 1 1 1 0 0 0 1 1 2 2 3 3 3 3 2 2 3 3 3 3
9 10 12 13 15 13 10 8 7 6 5 4 4 3 3 2 1 1 1 1 0 0 1 1 0 1 1 1 1 1 1 2 2 3 3 3 3 3 3 3 3 3 3
10 10 11 12 12 9 7 6 5 4 4 3 3 3 3 2 1 1 1 1 0 0 0 0 0 1 2 3 3 3 3 3 3 3 3 3 4 4 4 4 4 4 4
11 9 8 8 7 5 4 4 3 2 2 2 2 2 2 2 1 1 1 1 0 0 0 1 1 1 2 4 4 5 5 4 4 3 3 3 3 4 4 4 4 4 4
7 6 5 4 3 3 2 2 1 0 0 0 1 1 1 1 1 0 0 0 0 0 1 1 1 1 1 2 4 5 5 5 5 4 4 4 4 4 4 4 4 3 3
2 2 2 2 2 1 2 1 1 0 0 0 0 0 0 0 0 0 0 0 0 0 0 1 1 1 1 2 3 4 4 4 4 5 5 5 4 4 4 3 3 3 3
2 1 1 1 1 1 1 1 0 0 0 0 0 0 0 0 0 0 0 0 0 0 0 0 0 0 1 1 2 2 2 3 3 4 5 5 5 5 4 4 3 3 3
2 1 1 1 1 1 0 0 0 0 0 0 0 0 0 0 0 0 0 0 0 0 0 0 0 0 0 0 1 1 2 2 2 2 3 4 4 4 4 3 3 3 3
2 1 1 1 1 1 0 0 0 0 0 0 0 0 0 0 0 0 0 0 0 0 0 0 0 0 0 0 0 0 1 1 1 1 2 2 2 2 2 2 2 2 2
1 1 1 1 1 1 0 0 0 0 0 0 0 0 0 0 0 0 0 0 0 0 0 0 0 0 0 0 0 0 0 0 0 1 1 1 2 1 1 1 1 1 1
1 1 1 1 1 0 0 0 0 0 0 0 0 0 0 0 0 0 0 0 0 0 0 0 0 0 0 0 0 0 0 0 0 1 1 2 2 2 2 2 1 1 1
0 1 1 1 1 0 0 0 0 0 0 0 0 0 0 0 0 0 0 0 0 0 0 0 0 0 0 0 0 0 0 0 0 0 1 1 2 2 2 2 2 2 2
0 1 1 1 1 1 0 0 0 0 0 0 0 0 0 0 0 0 0 0 0 0 0 0 0 0 0 0 0 0 0 0 0 0 1 1 2 2 2 2 3 3 3
0 0 1 2 1 1 0 0 0 0 0 0 0 0 0 0 0 0 0 0 0 0 0 0 0 0 0 0 0 0 0 0 0 0 0 1 1 2 2 2 3 3 3
Wind_Speed
6 5 5 5 5 5 5 5 4 4 4 4 4 4 4 5 5 5 5 5 5 5 4 5 5 4 4 3 3 3 4 4 4 3 2 1 1 2 1 1 2 2 2
6 6 6 5 5 5 5 5 5 4 4 4 4 4 5 5 5 5 6 5 6 6 6 5 6 4 5 4 4 4 4 4 4 4 2 2 2 2 1 2 1 1 2
6 6 6 6 6 6 6 4 4 4 4 4 4 5 5 5 5 6 6 6 6 6 5 6 6 5 5 4 4 4 4 4 3 3 3 2 2 2 1 1 1 1 2
6 6 6 7 6 6 5 4 4 4 4 4 4 4 4 4 5 5 5 5 5 5 5 5 5 6 6 5 5 5 4 3 3 3 3 2 2 2 2 2 1 1 2
5 5 6 5 5 4 4 4 4 3 4 3 3 3 3 3 4 4 4 4 4 4 4 4 5 6 6 5 5 5 5 4 3 3 3 2 2 2 2 2 2 2 2
4 4 4 3 4 4 4 4 3 3 3 3 3 3 3 3 3 4 4 3 3 3 4 4 4 5 5 5 5 6 6 5 5 4 4 4 4 3 2 2 2 2 2
3 3 3 4 4 4 4 4 3 3 3 3 3 3 4 4 4 4 4 3 2 3 3 3 3 3 3 3 4 4 5 6 6 5 5 6 5 5 4 4 4 4 4
3 2 2 3 3 3 3 3 3 2 3 3 3 3 3 3 3 3 3 2 2 3 3 4 3 3 3 3 3 3 3 3 5 4 5 5 5 4 5 5 4 3 2
2 2 2 2 2 2 3 3 2 2 2 2 2 3 2 2 2 2 2 1 1 3 3 3 3 3 3 4 3 3 3 3 3 4 4 4 4 5 4 2 2 2 3
1 1 1 2 2 2 2 2 2 2 2 2 1 2 2 2 1 2 3 2 2 2 2 2 3 3 3 4 4 4 4 4 2 2 2 2 3 3 5 4 4 4 2
1 2 1 2 2 2 2 2 2 1 1 0 1 1 1 1 1 1 2 2 2 2 2 2 2 2 3 4 5 4 5 3 2 2 2 2 2 2 3 3 4 4 4
3 3 2 1 2 2 2 2 2 2 2 1 1 1 1 1 0 0 1 2 2 2 3 2 1 2 3 4 4 4 4 2 1 2 2 2 2 3 3 3 4 4 4
3 2 1 1 1 1 2 2 2 2 2 1 1 1 1 1 0 1 0 1 2 2 2 2 2 2 2 2 3 3 2 2 2 2 2 3 3 3 2 2 3 3 3
3 2 1 1 1 1 1 2 2 2 2 1 1 1 1 1 1 0 0 0 0 0 1 1 2 2 1 1 1 1 1 2 2 3 3 2 2 2 3 2 2 2 2
3 2 1 1 1 1 1 0 1 1 2 3 2 2 2 2 2 2 1 1 1 1 1 0 0 0 1 1 1 1 1 1 2 2 2 2 2 3 3 2 2 2 3
2 2 1 1 1 1 1 1 4 2 2 1 1 2 1 2 1 1 2 1 1 2 2 1 1 1 1 2 1 1 1 2 2 2 3 3 3 3 3 2 2 3 4
2 2 2 2 1 1 1 1 1 3 4 3 2 1 0 1 1 1 1 1 1 3 1 1 1 2 2 2 2 2 2 2 2 2 2 2 3 3 2 3 3 3 3
2 3 2 2 2 2 2 2 2 1 0 1 2 2 1 1 1 0 1 2 1 1 1 1 2 2 2 2 2 2 2 2 1 2 2 2 3 3 3 3 3 3 3
2 2 2 2 2 2 2 2 2 2 1 0 1 2 2 2 2 2 1 1 0 1 1 2 2 2 2 2 3 2 2 2 2 2 2 3 3 3 3 3 3 3 3
2 3 2 2 2 1 2 2 1 1 1 1 0 1 0 0 1 1 1 1 1 1 2 2 2 2 2 2 2 2 2 2 2 2 2 2 3 3 3 3 3 3 3
1 1 2 1 1 1 1 1 1 1 1 1 1 1 2 1 1 2 2 2 2 2 2 2 2 2 2 2 2 2 3 2 2 2 2 3 3 3 2 2 3 3 3
1 1 1 2 2 2 2 1 1 1 1 1 1 1 2 2 2 2 2 3 2 2 2 2 2 2 2 2 3 3 3 3 3 2 3 3 3 3 2 2 2 3 3
1 2 2 1 2 2 1 1 1 1 1 1 1 1 1 2 2 2 3 3 2 2 2 2 2 2 2 2 3 3 3 4 3 3 3 3 3 3 2 2 3 3 3
1 1 1 1 1 1 1 1 1 1 2 1 1 1 2 2 2 3 3 2 2 2 2 2 2 3 4 3 2 3 3 3 4 4 5 4 4 3 3 3 3 4 3
1 1 1 1 1 1 1 1 1 1 1 2 2 2 2 2 2 2 2 2 2 2 3 2 2 3 4 4 4 3 3 4 3 3 3 3 4 4 4 4 3 3 3
2 1 1 1 1 1 1 1 1 1 1 1 1 2 2 2 2 2 2 2 2 2 2 2 3 3 4 3 4 3 2 2 2 2 2 2 3 3 3 3 3 3 3
Wind_Direction
188 190 192 193 196 197 202 208 204 191 184 189 198 204 211 213 209 206 214 212 218 227 226 221 231 225 219 218 213 208 211 206 231 255 241 244 232 236 236 219 223 220 211
190 187 190 189 190 197 207 207 199 194 191 193 198 200 212 214 206 207 218 219 221 227 228 222 231 225 222 220 213 213 212 210 212 240 244 231 235 229 224 223 235 220 210
185 184 185 191 197 203 208 204 196 195 196 194 197 208 214 214 210 211 213 218 221 225 223 222 227 218 224 220 215 214 212 211 210 220 243 233 236 215 212 222 232 237 221
179 182 188 196 201 204 201 195 194 194 199 203 205 215 218 217 214 214 213 219 226 225 220 223 226 220 224 220 217 215 207 203 201 211 230 239 237 222 199 214 241 235 238
172 181 196 200 194 193 198 198 189 195 207 204 203 216 221 221 223 215 214 221 224 231 233 234 232 227 223 216 215 206 197 199 199 208 222 226 229 216 220 213 228 243 245
164 180 182 183 190 193 199 196 189 201 207 200 209 215 222 233 242 225 206 213 217 228 241 248 246 239 231 217 212 203 195 199 205 206 216 223 231 229 228 218 216 225 247
168 180 181 179 186 194 192 188 194 205 201 207 217 217 228 237 233 221 204 201 211 230 238 242 243 241 221 215 214 211 213 217 208 203 213 225 225 221 212 221 220 227 238
164 176 191 180 181 174 170 179 193 199 203 213 221 223 227 247 227 200 178 193 216 237 240 236 229 232 224 201 201 205 225 235 227 218 223 230 230 220 210 216 221 227 244
153 172 180 172 172 172 178 188 185 187 202 210 212 209 212 238 217 181 155 183 239 258 261 253 233 232 224 189 189 201 226 252 245 229 233 234 229 218 200 181 187 198 239
164 174 165 148 163 179 184 183 172 182 207 203 213 224 222 243 227 176 163 175 232 258 263 254 237 229 226 195 200 205 226 246 247 244 244 251 239 218 197 200 202 207 226
143 105 116 146 164 164 160 163 163 161 153 149 224 268 266 261 256 202 179 182 215 246 258 258 253 222 216 204 205 217 226 231 231 227 233 243 240 231 226 223 217 209 216
113 111 115 150 156 145 150 154 141 135 141 174 206 286 295 272 256 108 151 205 218 240 257 261 262 239 222 212 210 218 213 209 218 224 239 250 248 247 242 239 233 231 235
112 115 112 96 112 127 140 141 132 144 166 193 203 229 283 306 10 66 36 235 216 231 264 264 258 240 226 228 224 210 200 201 211 230 240 250 251 251 246 242 242 240 246
131 128 122 101 76 86 111 146 163 176 178 192 211 219 244 280 298 31 325 336 291 235 290 293 268 250 237 248 259 232 219 220 226 238 249 259 261 245 233 228 230 229 236
137 138 133 125 123 98 78 141 188 205 201 195 209 208 210 239 265 247 227 231 225 219 181 321 303 240 239 252 261 257 231 226 235 250 251 255 255 250 251 241 224 219 227
141 165 177 160 140 141 125 47 46 72 56 97 193 201 231 230 247 262 248 224 207 175 149 187 243 254 244 242 245 258 253 245 249 249 246 247 251 247 250 244 231 226 231
165 186 187 177 170 167 162 157 91 43 53 56 62 77 186 253 250 251 232 163 141 141 150 219 244 255 262 260 248 248 259 264 257 249 250 251 250 246 241 235 227 230 237
180 194 195 196 191 182 182 186 180 176 207 10 32 47 23 8 9 44 122 101 83 119 217 243 255 261 262 263 260 255 257 260 257 260 261 257 250 245 242 240 233 232 234
188 197 199 197 190 185 178 176 171 168 177 203 0 10 26 33 30 22 96 101 204 266 271 268 266 266 266 263 263 263 254 255 260 258 260 261 254 246 242 240 233 229 233
196 201 190 174 170 161 158 165 165 164 167 182 250 286 342 46 12 347 310 290 266 270 270 272 277 275 270 268 267 264 260 257 262 256 260 261 259 251 247 245 242 241 240
187 176 148 138 149 148 156 167 184 176 191 220 246 243 201 210 235 247 250 254 253 253 256 262 268 273 270 268 265 259 254 255 253 254 258 261 258 255 253 249 247 249 252
146 151 141 139 138 151 159 167 181 186 208 229 263 270 222 227 242 250 254 257 257 254 253 253 261 265 259 252 250 252 254 255 256 253 257 259 256 252 249 246 246 246 243
137 135 127 131 141 150 161 171 180 199 221 235 247 254 244 247 247 245 252 259 263 262 260 255 260 267 266 258 252 246 249 253 254 251 250 254 255 253 251 253 255 257 256
127 135 141 140 140 158 168 178 191 211 223 230 238 240 239 243 250 253 257 258 254 258 261 256 255 259 265 269 268 263 262 265 261 250 244 247 253 253 250 255 257 256 253
117 128 138 155 165 167 164 174 202 226 236 238 232 235 241 245 252 259 262 258 251 251 262 269 269 269 269 271 274 272 275 271 264 262 244 237 248 252 254 257 258 259 252
96 103 107 112 123 153 163 181 230 247 250 251 241 240 242 245 256 264 265 262 263 263 270 273 273 274 278 277 279 282 276 276 276 268 250 239 245 249 253 251 249 247 248